220P/McNaught (2020)

Japanese version
Home page
Updated on November 5, 2020

---------------------------------------------------------------------

* Profile

* Pictures

* Orbital Elements

Epoch 2020 Dec. 17.0 TT = JDT 2459200.5
T 2020 Dec. 10.62875 TT                                 Rudenko
q   1.5523525            (2000.0)            P               Q
n   0.17917736     Peri.  180.53117     +0.87145396     +0.48538704
a   3.1161184      Node   150.10229     -0.44948111     +0.84783726
e   0.5018313      Incl.    8.12871     -0.19630264     +0.21347462
P   5.50
From 476 observations 2004 May 20-2020 Aug. 14, mean residual 0".8.

* Magnitudes Graph

        m1 = 14.0 + 5 log d + 15.0 log r

---------------------------------------------------------------------

The orbital elements are published on M.P.E.C. 2020-S188.
The magnitudes graphs are made with Comet for Windows.

---------------------------------------------------------------------

Copyright(C) Seiichi Yoshida (comet@aerith.net). All rights reserved.